STARLINK-38001, 69828

Orbit data source: Space-Track

STARLINK-38001, 69828 is a payload satellite owned by SpaceX/Seattle (US) in LEO that was launched on Sun, 05 Jul 2026 UTC via an FALCON 9 launch vehicle from the Air Force Eastern Test Range (AFETR). Payload-class satellites include a variety of spacecraft equipped with specific instruments for various scientific and technological missions. These include communications satellites like Starlink; space stations such as the ISS; scientific satellites like the Hubble; Earth observation satellites from companies like Planet Labs, Umbra, and HawkEye 360; GPS; miniature CubeSats for education and research; and military/defense satellites.

Loading next visibility...
Identifier
69828, 2026-154K
Orbit
LEO
Country
Flag of USUS
Related business
Manufacturer
SpaceX/Seattle
Mission
Operational spacecraft
Bus & Motor
STARLINK V2MO, Unknown motor
Mass
575 kg wet, ~530 kg dry
Launch date (UTC)
2026-07-05 (1 month ago)
Launch vehicle
FALCON 9
Launch site
Air Force Eastern Test Range (AFETR)
Object type
Payload
Rocket body
Debris
Shape & HBR
BOX + PAN, 17.7 m
Radar Cross Section
Large (>1 m²)

Expand to show TLE details & history
Last TLE update: 12 hours ago

TLE from 12 hours ago
0 STARLINK-38001
1 69828U 26154K   26228.58335648  .00051334  00000-0  14729-2 0  9994
2 69828  53.1579 135.2360 0001329  84.2436 274.0802 15.35392049  6029
Epoch: 2026-08-16T14:00Z
TLE epoch observation values (Epoch: 2026-08-16T14:00:01.999Z)
Latitude
-1.44265°
Longitude
-40.82532°
Altitude
460.792 km
Speed
7.637 km/s
True Right ascension
08h 56m 38s
True Declination
-1° 26' 01"
Sunlit
Object was in daylight at epoch
Visualization orbit readout
Latitude
Unknown
Longitude
Unknown
Altitude
Unknown
Speed
Unknown
Apparent Right ascension
Unknown
Apparent Declination
Unknown
Sunlit
N/A
Visualization observer readout
Local Sidereal Time
17:08:25
Azimuth
Unknown
Elevation
Unknown
Doppler factor
Unknown
Orbital elements
Apogee altitude
460.922 km
Perigee altitude
459.105 km
Semi-major axis
6,838.151 km
Eccentricity
0.00013
Inclination
53.1579°
RAAN
135.236°
Arg. of periapsis
84.2436°
True anomaly
274.06501°
Mean anomaly
274.0802°
Eccentric anomaly
274.0726°
Mean motion
3.83827 °/min
Orbital period
93.79 mins
BSTAR
0.0014729
Loading maneuver chart data...
Computing Atmospheric mass density...
Loading historical data...
Loading historical data...
Loading historical data...
Loading historical data...
Loading historical data...
Loading historical data...
Loading historical data...

Documentation

Showing up to 5 results
|